Flag for Canada Weather past 2 weeks in Oshawa, Ontario, Canada

Now
54 °F

Partly sunny.


Feels Like: 51 °F
Forecast: N/A
Wind: 9 mph from Southeast

Location: Toronto Buttonville

Current Time: Sep 19, 2014 at 6:42:03 PM

Latest Report: Sep 19, 2014 at 6:00 PM


Visibility: 15 mi

Pressure: 30.24 "Hg

Humidity: 67%

Dew point: 43 °F

Location of OshawaLocation

Historic Weather in Oshawa — Graph

°F

Oshawa temperature yesterday

Maximum temperature yesterday: 57 °F (at 3:00 PM)
Minimum temperature yesterday: 45 °F (at 11:00 PM)
Average temperature yesterday: 51 °F

Past Weeks' High & Low Weather Summary

 TemperatureHumidityPressure
High86 °F (Sep 5, 3:00 PM)100% (Sep 6, 3:00 AM)30.37 "Hg (Sep 6, 3:00 AM)
Low37 °F (Sep 19, 6:00 AM)40% (Sep 6, 5:00 PM)29.52 "Hg (Sep 11, 4:00 AM)
Average59 °F76%30.10 "Hg
* Reported Sep 4 5:00 PM — Sep 19 5:00 PM, Oshawa, Weather by CustomWeather, © 2014

Note: Actual official high and low records may vary slightly from our data, if they occured in-between our weather recording intervals... More about our weather records

Advertising

Oshawa weather history for previous 24 hours

 ConditionsComfort  
Time TempWeatherWind HumidityBarometerVisibility
5:00 PM
Sep 19
54 °FPartly sunny.9 mph67%30.26 "Hg15 mi
4:00 PM55 °FPartly sunny.8 mph63%30.25 "Hg15 mi
3:00 PM55 °FPartly sunny.12 mph63%30.28 "Hg15 mi
2:00 PM55 °FBroken clouds.14 mph67%30.31 "Hg15 mi
1:00 PM55 °FScattered clouds.12 mph63%30.34 "Hg15 mi
12:00 PM54 °FPartly sunny.9 mph67%30.36 "Hg15 mi
11:00 AM52 °FPartly sunny.12 mph72%30.36 "Hg15 mi
10:00 AM48 °FPartly sunny.9 mph76%30.37 "Hg15 mi
9:00 AM45 °FPassing clouds.7 mph71%30.36 "Hg15 mi
8:00 AM41 °FPassing clouds.8 mph70%30.35 "Hg15 mi
7:00 AM37 °FPassing clouds.2 mph81%30.34 "Hg15 mi
6:00 AM37 °FPassing clouds.3 mph81%30.33 "Hg15 mi
5:00 AM39 °FClear.5 mph75%30.32 "Hg15 mi
4:00 AM39 °FClear.6 mph81%30.31 "Hg15 mi
3:00 AM39 °FClear.2 mph81%30.30 "Hg15 mi
2:00 AM41 °FPassing clouds.3 mph81%30.29 "Hg15 mi
1:00 AM43 °FPassing clouds.5 mph76%30.27 "Hg15 mi
12:00 AM43 °FClear.6 mph81%30.26 "Hg15 mi
11:00 PM
Sep 18
45 °FClear.6 mph81%30.24 "Hg15 mi
10:00 PM46 °FClear.3 mph76%30.23 "Hg15 mi
9:00 PM48 °FClear.5 mph71%30.22 "Hg15 mi
8:00 PM50 °FSunny.3 mph67%30.20 "Hg15 mi
7:00 PM52 °FPassing clouds.7 mph62%30.18 "Hg15 mi
6:00 PM55 °FPassing clouds.10 mph55%30.17 "Hg15 mi
Weather by CustomWeather, © 2014

See weather overviewHow to use our weather pages